User: anonymous   Login
Location: Noordwijk
(52.2400°N, 4.4500°E)
Time: 22:54:14
(UTC+00:00)
Language:

CAS-4B - Orbit

View from above orbital plane
View from above orbital plane
View from above satellite
View from above satellite

Ground track
Ground track

The orbit data is extracted from the following two-line orbital elements,

1 42759U 17034B   24110.57269642  .00031036  00000-0  11947-2 0  9998
2 42759  43.0152 197.2591 0013640 318.0407  41.9398 15.25735388378442
Epoch (UTC): 19 April 2024 13:44:40
Eccentricity: 0.0013640
inclination: 43.0152°
perigee height: 479 km
apogee height: 498 km
right ascension of ascending node: 197.2591°
argument of perigee: 318.0407°
revolutions per day: 15.25735388
mean anomaly at epoch: 41.9398°
orbit number at epoch: 37844

The dashed part of the orbit path shows where the satellite is in the earth's shadow,  

DLR